Regional Weather Roundup
Issued by NWS

Home | Current Version | Previous Version | Graphics & Text | Print | Product List | Glossary On
Versions: 1 2 3 4 5 6 7 8 9 10 11 12 13 14 15 16 17 18 19 20 21 22 23 24 25 26 27 28 29 30 31 32 33 34 35 36 37 38 39 40 41 42 43 44 45 46 47 48 49 50
000
ASUS45 KBOU 301310
RWRCO

WEATHER ROUNDUP FOR COLORADO
NATIONAL WEATHER SERVICE DENVER/BOULDER CO
700 AM MDT THU JUL 30 2015

NOTE: "FAIR" INDICATES FEW OR NO CLOUDS BELOW 12000 FEET WITH NO
SIGNIFICANT WEATHER AND/OR OBSTRUCTIONS TO VISIBILITY.

COZ001>005-013-030-031-301400-
...NORTHWEST COLORADO...

CITY           SKY/WX    TMP DP  RH WIND       PRES   REMARKS
CRAIG          CLEAR     39  30  70 W3        30.43R
HAYDEN         CLEAR     48  27  43 E12       30.44R
MEEKER         CLEAR     44  30  57 CALM      30.43R
MOUNT WERNER   NOT AVBL
STEAMBOAT SPGS CLEAR     40  31  68 CALM      30.47R
WALDEN         CLEAR     37  30  75 SE5       30.55S
$$

COZ006>008-011-301400-
...WEST CENTRAL VALLEYS...

CITY           SKY/WX    TMP DP  RH WIND       PRES   REMARKS
GRAND JUNCTION CLEAR     59  31  34 SE6       30.29R
MONTROSE       CLEAR     56  35  45 SE6       30.38R
EAGLE          PTCLDY    46  34  61 CALM      30.50R
RIFLE          CLEAR     52  29  41 CALM      30.38R
DELTA          CLEAR     58  35  42 CALM      30.35R HAZE
NUCLA          CLEAR     59  34  38 E3        30.42R
$$

COZ017>023-064>068-301400-
...SOUTHWEST COLORADO...

CITY           SKY/WX    TMP DP  RH WIND       PRES   REMARKS
DURANGO        PTCLDY    54  46  74 N5        30.44R
CORTEZ         CLEAR     53  47  79 E3        30.39R
PAGOSA SPRINGS PTCLDY    49  47  93 CALM      30.51R
TELLURIDE      CLEAR     50  37  61 SE6       30.61S
WOLF CREEK PAS NOT AVBL
$$

COZ009-010-012-014-032>034-037-058>063-301400-
...CENTRAL COLORADO...

CITY           SKY/WX    TMP DP  RH WIND       PRES   REMARKS
ASPEN          CLEAR     46  37  71 CALM      30.51R
BUENA VISTA    CLEAR     50  47  88 W6        30.54R
COPPER MTN     CLEAR     54  30  40 S7        30.80S
BERTHOUD PASS  FAIR      45  34  65 NW5       30.85R
COTTONWOOD PAS CLEAR     55  39  54 CALM      30.65R
GUNNISON       PTCLDY    46  39  76 CALM      30.57R
KREMMLING      CLEAR     39  30  70 CALM      30.56R
LEADVILLE      CLEAR     43  40  89 NE3       30.65R
MONARCH PASS   CLEAR     50  34  53 CALM      30.88S
SALIDA         CLEAR     52  47  82 W3        30.59R
SUNLIGHT       CLEAR     55  27  33 CALM      30.73S
WILKERSON PASS PTCLDY    52  36  54 NE5       30.77R
$$

COZ069>075-301400-
...SAN LUIS VALLEY/SANGRE DE CRISTO MOUNTAINS...

CITY           SKY/WX    TMP DP  RH WIND       PRES   REMARKS
ALAMOSA        CLOUDY    52  49  89 CALM      30.51R
LA VETA PASS   CLOUDY    46  43  87 MISG      30.67R
SAGUACHE       PTCLDY    50  45  81 N10       30.54R
$$

COZ035-036-038>040-301400-
...NORTHERN COLORADO FRONT RANGE...

CITY           SKY/WX    TMP DP  RH WIND       PRES   REMARKS
DENVER INTL AP MOSUNNY   63  50  62 W10       30.34R
DMNS CITY PARK   N/A     66  51  59 SW1G9     30.35R
AURORA         MOSUNNY   61  53  73 SW5       30.37R
FRONT RANGE AP MOSUNNY   59  50  72 SW7       30.35
ERIE MUNI ARPT SUNNY     58  52  80 CALM      30.33R
BOULDER MUN AP SUNNY     61  50  67 CALM      30.34R
CENTENNIAL     MOSUNNY   63  51  65 SW5       30.38R
BROOMFIELD     MOSUNNY   59  50  72 CALM      30.36R
FORT COLLINS   SUNNY     57  48  72 CALM      30.34R
LONGMONT       SUNNY     60  53  76 CALM      30.35R
$$

COZ041-046-047-076>085-087-088-301400-
...PIKES PEAK/PALMER DIVIDE AND SOUTHERN FOOTHILLS...

CITY           SKY/WX    TMP DP  RH WIND       PRES   REMARKS
COLO. SPRINGS  PTSUNNY   59  52  77 NE3       30.42R
A. F. ACADEMY  MOSUNNY   54  50  86 N7        30.43R
ELLICOTT         N/A    N/A N/A N/A SE8       30.40R FOG
FALCON         MOSUNNY   58  55  87 SW3       30.46R
FORT CARSON    MOSUNNY   61  53  74 NW5       30.39R
LIMON          FOG       61  61 100 S9        30.37R VSB 3/4
MONUMENT HILL  NOT AVBL
TRINIDAD       CLOUDY    63  54  72 W12       30.39R
$$

COZ042>045-048>051-090-091-301400-
...NORTHEAST COLORADO...

CITY           SKY/WX    TMP DP  RH WIND       PRES   REMARKS
GREELEY ARPT   SUNNY     57  52  82 N7        30.31R
AKRON          SUNNY     63  62  97 S12       30.31R
BURLINGTON     PTSUNNY   66  62  87 S12       30.32R
WRAY           SUNNY     63  59  87 S3        30.29R
STERLING       SUNNY     61  57  88 CALM      30.28R
HOLYOKE        SUNNY     59  55  88 S5        30.28S
FORT MORGAN    SUNNY     61  56  83 E3        30.30R
$$

COZ086-089-092>099-301400-
...SOUTHEAST COLORADO...

CITY           SKY/WX    TMP DP  RH WIND       PRES   REMARKS
PUEBLO         SUNNY     65  57  75 N7        30.32R
LA JUNTA       MOSUNNY   67  63  87 E5        30.30R
LAMAR          MOSUNNY   69  65  86 SE5       30.28S FOG
SPRINGFIELD      N/A     65  64  97 S8        30.34R
$$



USA.gov is the U.S. government's official web portal to all federal, state and local government web resources and services.